Flag for Russia Weather past 2 weeks in Astrakhan, Russia

Now
66 °F

Clear.


Feels Like: 66 °F
Forecast: 68 / 94 °F
Wind: 3 mph from Northeast

Location: Astrakhan

Current Time: Aug 2, 2014 at 4:25:25 AM

Latest Report: Aug 2, 2014 at 3:30 AM


Visibility: 10 mi

Pressure: 29.95 "Hg

Humidity: 60%

Dew point: 52 °F

Location of AstrakhanLocation

Historic Weather in Astrakhan — Graph

°F

Astrakhan temperature yesterday

Maximum temperature yesterday: 93 °F (at 2:30 PM)
Minimum temperature yesterday: 63 °F (at 2:30 AM)
Average temperature yesterday: 79 °F

Past Weeks' High & Low Weather Summary

 TemperatureHumidityPressure
High93 °F (Jul 18, 1:30 PM)83% (Aug 1, 2:30 AM)30.07 "Hg (Aug 1, 2:30 AM)
Low57 °F (Jul 29, 5:30 AM)11% (Aug 1, 5:00 PM)29.65 "Hg (Jul 19, 4:00 AM)
Average78 °F38%29.88 "Hg
* Reported Jul 18 3:00 AM — Aug 2 3:00 AM, Astrakhan, Weather by CustomWeather, © 2014

Note: Actual official high and low records may vary slightly from our data, if they occured in-between our weather recording intervals... More about our weather records

Advertising

Astrakhan weather history for previous 24 hours

 ConditionsComfort  
Time TempWeatherWind HumidityBarometerVisibility
3:00 AM
Aug 2
66 °FClear.6 mph60%29.95 "Hg10 mi
2:30 AM66 °FClear.1 mph64%29.92 "Hg10 mi
2:00 AM66 °FClear.1 mph60%29.92 "Hg10 mi
1:30 AM68 °FClear.1 mph60%29.95 "Hg10 mi
1:00 AM68 °FClear.6 mph60%29.95 "Hg10 mi
12:30 AM68 °FClear.3 mph56%29.95 "Hg10 mi
12:00 AM68 °FClear.3 mph60%29.95 "Hg10 mi
11:30 PM
Aug 1
73 °FClear.3 mph50%29.95 "Hg10 mi
11:00 PM72 °FPassing clouds.3 mph47%29.95 "HgN/A
10:30 PM73 °FPassing clouds.3 mph47%29.95 "HgN/A
10:00 PM75 °FPassing clouds.3 mph41%29.95 "HgN/A
9:30 PM77 °FClear.3 mph34%29.95 "Hg10 mi
9:00 PM75 °FSunny.3 mph29%29.95 "Hg10 mi
8:30 PM79 °FSunny.3 mph24%29.92 "Hg10 mi
8:00 PM82 °FSunny.6 mph20%29.92 "Hg10 mi
7:30 PM86 °FSunny.10 mph17%29.92 "Hg10 mi
7:00 PM88 °FSunny.13 mph15%29.92 "Hg10 mi
6:30 PM90 °FSunny.15 mph13%29.92 "Hg10 mi
6:00 PM90 °FSunny.15 mph12%29.92 "Hg10 mi
5:30 PM91 °FSunny.13 mph12%29.95 "Hg10 mi
5:00 PM91 °FPassing clouds.15 mph11%29.95 "HgN/A
4:30 PM91 °FPassing clouds.15 mph12%29.95 "HgN/A
4:00 PM91 °FPassing clouds.15 mph13%29.95 "HgN/A
3:30 PM91 °FSunny.13 mph12%29.95 "Hg10 mi
3:00 PM91 °FPassing clouds.13 mph13%29.95 "HgN/A
2:30 PM93 °FPassing clouds.13 mph13%29.95 "HgN/A
2:00 PM91 °FPassing clouds.15 mph13%29.95 "HgN/A
1:30 PM91 °FPassing clouds.13 mph15%29.95 "HgN/A
1:00 PM91 °FPassing clouds.15 mph16%29.95 "HgN/A
12:30 PM91 °FPassing clouds.13 mph21%29.95 "HgN/A
12:00 PM90 °FPassing clouds.15 mph21%29.98 "HgN/A
11:30 AM90 °FPassing clouds.15 mph22%29.98 "HgN/A
11:00 AM88 °FSunny.15 mph21%29.98 "Hg10 mi
10:30 AM88 °FSunny.15 mph18%29.98 "Hg10 mi
10:00 AM86 °FSunny.15 mph20%29.98 "Hg10 mi
9:30 AM84 °FSunny.13 mph25%29.98 "Hg10 mi
9:00 AM81 °FSunny.10 mph37%29.98 "Hg10 mi
8:30 AM79 °FSunny.10 mph42%29.98 "Hg10 mi
7:30 AM73 °FSunny.8 mph61%29.98 "Hg10 mi
7:00 AM70 °FSunny.8 mph69%29.98 "Hg10 mi
6:30 AM66 °FSunny.6 mph78%29.98 "Hg10 mi
6:00 AM64 °FClear.6 mph83%29.98 "Hg10 mi
5:30 AM64 °FClear.6 mph83%29.95 "Hg10 mi
5:00 AM64 °FClear.6 mph83%29.95 "Hg10 mi
4:30 AM64 °FClear.3 mph83%29.95 "Hg10 mi
4:00 AM63 °FClear.3 mph83%29.95 "Hg10 mi
Weather by CustomWeather, © 2014

See weather overviewHow to use our weather pages